Weather History for KAOH - January, 2014

Change the Weather History Date:

Thursday, January 2, 2014

  Actual Average (KFDY) Record (KFDY)
Temperature  
Mean Temperature 16 °F -  
Max Temperature 23 °F 33 °F 59 °F (2000)
Min Temperature 7 °F 20 °F -4 °F (1974)
Degree Days  
Heating Degree Days 49    
Moisture  
Dew Point 12 °F    
Average Humidity 80    
Maximum Humidity 93    
Minimum Humidity 70    
Precipitation  
Precipitation 0.09 in - - ()
Sea Level Pressure  
Sea Level Pressure 30.01 in    
Wind  
Wind Speed 12 mph (NNE)    
Max Wind Speed 26 mph    
Max Gust Speed 36 mph    
Visibility 2 miles    
Events Snow    
Averages and records for this station are not official NWS values.
T = Trace of Precipitation, MM = Missing Value Source: NWS Daily Summary

Daily Weather History Graph

Daily Weather History Graph

Search for Another Location

Airport or City:

Trip Planner

Search our weather history database for the weather conditions in past years. The results will help you decide how hot, cold, wet, or windy it might be!

Date:

Astronomy

Jan. 02, 2014 Rise Set
Actual Time 8:00 AM EST 5:20 PM EST
Civil Twilight 7:29 AM EST 5:51 PM EST
Nautical Twilight 6:55 AM EST 6:25 PM EST
Astronomical Twilight 6:21 AM EST 6:58 PM EST
Moon 8:40 AM EST (1/2) 7:16 PM EST (1/2)
Length of Visible Light 10h 21m
Length of Day
9h 20m
New Moon, 2% of the Moon is Illuminated
Jan 2
New Moon
Jan 7
First Quarter
Jan 15
Full
Jan 24
Last Quarter
Jan 30
New

Hourly Weather History & Observations

Time (EST) Temp. Windchill Dew Point Humidity Pressure Visibility Wind Dir Wind Speed Gust Speed Precip Events Conditions
12:26 AM 23.0 °F 14.7 °F 19.4 °F 86% 30.05 in 1.8 mi NNE 6.9 mph - 0.00 in Snow Light Snow
12:36 AM 23.0 °F 13.9 °F 19.4 °F 86% 30.04 in 2.5 mi NNE 8.1 mph - 0.00 in Snow Light Snow
12:44 AM 21.2 °F 10.9 °F 19.4 °F 93% 30.04 in 3.0 mi NNE 9.2 mph - 0.00 in Snow Light Snow
12:53 AM 21.9 °F 12.5 °F 19.0 °F 89% 30.07 in 4.0 mi NNE 8.1 mph - 0.00 in Snow Light Snow
1:09 AM 21.2 °F 12.6 °F 19.4 °F 93% 30.03 in 5.0 mi NE 6.9 mph - 0.00 in Snow Light Snow
1:30 AM 21.2 °F 12.6 °F 19.4 °F 93% 30.02 in 3.0 mi NNE 6.9 mph - 0.00 in Snow Light Snow
1:48 AM 21.2 °F 12.6 °F 17.6 °F 86% 30.02 in 3.0 mi NNE 6.9 mph - 0.01 in Snow Light Snow
1:53 AM 21.9 °F 12.5 °F 19.0 °F 89% 30.06 in 3.0 mi NNE 8.1 mph - 0.01 in Snow Light Snow
2:06 AM 21.2 °F 11.7 °F 19.4 °F 93% 30.01 in 2.0 mi NNE 8.1 mph - 0.00 in Snow Light Snow
2:31 AM 21.2 °F 12.6 °F 17.6 °F 86% 30.02 in 2.0 mi NNE 6.9 mph - 0.00 in Snow Light Snow
2:36 AM 21.2 °F 13.6 °F 17.6 °F 86% 30.02 in 1.8 mi NE 5.8 mph - 0.00 in Snow Light Snow
2:49 AM 21.2 °F 11.7 °F 17.6 °F 86% 30.02 in 1.5 mi NNE 8.1 mph - 0.01 in Snow Light Snow
2:53 AM 21.9 °F 12.5 °F 18.0 °F 85% 30.06 in 1.5 mi NNE 8.1 mph - 0.01 in Snow Light Snow
3:05 AM 21.2 °F 12.6 °F 19.4 °F 93% 30.02 in 2.0 mi NNE 6.9 mph - 0.00 in Snow Light Snow
3:19 AM 23.0 °F 13.9 °F 19.4 °F 86% 30.01 in 2.5 mi NE 8.1 mph - 0.00 in Snow Light Snow
3:23 AM 23.0 °F 13.1 °F 19.4 °F 86% 30.01 in 3.0 mi NNE 9.2 mph - 0.00 in Snow Light Snow
3:34 AM 23.0 °F 13.1 °F 19.4 °F 86% 30.00 in 4.0 mi NE 9.2 mph - 0.00 in Snow Light Snow
3:53 AM 23.0 °F 13.1 °F 19.0 °F 85% 30.03 in 3.0 mi ENE 9.2 mph - 0.01 in Snow Light Snow
4:03 AM 23.0 °F 14.7 °F 19.4 °F 86% 29.98 in 3.0 mi NE 6.9 mph - 0.00 in Snow Light Snow
4:24 AM 23.0 °F 13.9 °F 19.4 °F 86% 29.98 in 2.5 mi NNE 8.1 mph - 0.00 in Snow Light Snow
4:48 AM 21.2 °F 9.5 °F 17.6 °F 86% 29.96 in 1.8 mi NNE 11.5 mph - 0.01 in Snow Light Snow
4:53 AM 21.0 °F 8.1 °F 17.1 °F 85% 30.00 in 2.0 mi NNE 13.8 mph - 0.01 in Snow Light Snow
5:20 AM 21.2 °F 10.1 °F 15.8 °F 80% 29.95 in 1.8 mi NNE 10.4 mph - 0.00 in Snow Light Snow
5:37 AM 21.2 °F 11.7 °F 15.8 °F 80% 29.94 in 2.5 mi NNE 8.1 mph - 0.00 in Snow Light Snow
5:45 AM 21.2 °F 11.7 °F 15.8 °F 80% 29.94 in 2.5 mi NE 8.1 mph - 0.01 in Snow Light Snow
5:53 AM 21.0 °F 9.9 °F 17.1 °F 85% 29.98 in 2.0 mi NE 10.4 mph - 0.01 in Snow Light Snow
6:13 AM 21.2 °F 10.9 °F 17.6 °F 86% 29.92 in 1.8 mi NNE 9.2 mph - 0.00 in Snow Light Snow
6:48 AM 19.4 °F 6.6 °F 15.8 °F 86% 29.92 in 1.0 mi NNE 12.7 mph - 0.01 in Snow Light Snow
6:53 AM 19.0 °F 6.1 °F 15.1 °F 85% 29.97 in 1.2 mi NNE 12.7 mph - 0.01 in Snow Light Snow
7:50 AM 17.6 °F 4.3 °F 12.2 °F 79% 29.91 in 0.8 mi NNE 12.7 mph - 0.01 in Snow Light Snow
7:53 AM 17.1 °F 2.5 °F 12.0 °F 81% 29.96 in 1.0 mi NNE 15.0 mph - 0.01 in Snow Light Snow
8:01 AM 17.6 °F 2.7 °F 12.2 °F 79% 29.91 in 1.0 mi NNE 16.1 mph 23.0 mph 0.00 in Snow Light Snow
8:15 AM 17.6 °F 3.2 °F 12.2 °F 79% 29.91 in 1.2 mi NNE 15.0 mph 21.9 mph 0.01 in Snow Light Snow
8:53 AM 16.0 °F 1.1 °F 10.9 °F 81% 29.96 in 0.5 mi NNE 15.0 mph - 0.01 in Snow Snow
9:10 AM 15.8 °F 0.3 °F 10.4 °F 79% 29.92 in 0.8 mi NNE 16.1 mph - 0.00 in Snow Light Snow
9:23 AM 15.8 °F -1.5 °F 10.4 °F 79% 29.91 in 1.0 mi NNE 20.7 mph 27.6 mph 0.00 in Snow Light Snow
9:33 AM 15.8 °F -0.2 °F 10.4 °F 79% 29.91 in 0.8 mi NNE 17.3 mph 27.6 mph 0.00 in Snow Light Snow
9:49 AM 15.8 °F -0.2 °F 10.4 °F 79% 29.92 in 1.0 mi NNE 17.3 mph 26.5 mph 0.00 in Snow Light Snow
9:53 AM 15.1 °F -2.5 °F 9.0 °F 77% 29.97 in 1.0 mi NNE 20.7 mph 26.5 mph 0.00 in Snow Light Snow
10:49 AM 15.8 °F -0.6 °F 8.6 °F 73% 29.95 in 1.0 mi NNE 18.4 mph 24.2 mph 0.00 in Snow Light Snow
10:53 AM 15.1 °F -0.6 °F 9.0 °F 77% 30.00 in 1.0 mi NNE 16.1 mph 24.2 mph 0.00 in Snow Light Snow
11:00 AM 15.8 °F -0.6 °F 8.6 °F 73% 29.94 in 0.8 mi NNE 18.4 mph 23.0 mph 0.00 in Snow Light Snow
11:26 AM 14.0 °F -3.4 °F 8.6 °F 79% 29.94 in 0.5 mi NNE 19.6 mph 29.9 mph 0.01 in Snow Snow
11:33 AM 14.0 °F -2.5 °F 8.6 °F 79% 29.94 in 0.5 mi NNE 17.3 mph 29.9 mph 0.01 in Snow Snow
11:50 AM 14.0 °F -3.0 °F 8.6 °F 79% 29.93 in 0.5 mi NNE 18.4 mph 27.6 mph 0.01 in Snow Snow
11:53 AM 14.0 °F -3.9 °F 9.0 °F 80% 29.97 in 0.5 mi NNE 20.7 mph 27.6 mph 0.01 in Snow Snow
12:06 PM 15.8 °F -0.6 °F 8.6 °F 73% 29.92 in 0.8 mi NNE 18.4 mph 28.8 mph 0.00 in Snow Light Snow
12:27 PM 15.8 °F -2.3 °F 8.6 °F 73% 29.90 in 1.0 mi NNE 23.0 mph 32.2 mph 0.00 in Snow Light Snow
12:53 PM 15.1 °F -2.5 °F 8.1 °F 74% 29.96 in 1.0 mi North 20.7 mph 33.4 mph 0.00 in Snow Light Snow
1:53 PM 15.1 °F -2.5 °F 9.0 °F 77% 29.96 in 1.5 mi NNE 20.7 mph 27.6 mph 0.00 in Snow Light Snow
2:21 PM 15.8 °F -1.9 °F 8.6 °F 73% 29.91 in 1.0 mi North 21.9 mph 35.7 mph 0.00 in Snow Light Snow
2:31 PM 15.8 °F -1.9 °F 8.6 °F 73% 29.92 in 2.0 mi North 21.9 mph 29.9 mph 0.00 in Snow Light Snow
2:43 PM 15.8 °F -1.9 °F 8.6 °F 73% 29.92 in 1.5 mi North 21.9 mph 32.2 mph 0.00 in Snow Light Snow
2:53 PM 15.1 °F -4.4 °F 9.0 °F 77% 29.97 in 1.0 mi North 26.5 mph 33.4 mph 0.00 in Snow Light Snow
3:14 PM 15.8 °F -1.5 °F 8.6 °F 73% 29.94 in 0.8 mi North 20.7 mph 32.2 mph 0.00 in Snow Light Snow
3:24 PM 15.8 °F 0.3 °F 8.6 °F 73% 29.95 in 1.0 mi North 16.1 mph 32.2 mph 0.00 in Snow Light Snow
3:53 PM 15.1 °F -2.5 °F 8.1 °F 74% 30.01 in 2.0 mi North 20.7 mph 32.2 mph 0.00 in Snow Light Snow
4:08 PM 14.0 °F -3.9 °F 6.8 °F 73% 29.98 in 4.0 mi North 20.7 mph 31.1 mph 0.00 in Snow Light Snow
4:36 PM 14.0 °F -2.0 °F 8.6 °F 79% 30.00 in 1.8 mi North 16.1 mph 24.2 mph 0.00 in Snow Light Snow
4:50 PM 14.0 °F -3.4 °F 8.6 °F 79% 30.00 in 0.8 mi North 19.6 mph 25.3 mph 0.00 in Snow Light Snow
4:51 PM 14.0 °F -3.9 °F 8.1 °F 77% 30.06 in 0.8 mi North 20.7 mph 28.8 mph 0.00 in Snow Light Snow
5:00 PM 14.0 °F -1.4 °F 8.6 °F 79% 30.01 in 1.0 mi North 15.0 mph 28.8 mph 0.00 in Snow Light Snow
5:17 PM 14.0 °F -2.0 °F 8.6 °F 79% 30.02 in 2.0 mi North 16.1 mph 25.3 mph 0.00 in Snow Light Snow
5:49 PM 12.2 °F -4.3 °F 8.6 °F 85% 30.04 in 3.0 mi North 16.1 mph 24.2 mph 0.00 in Snow Light Snow
5:53 PM 12.9 °F -2.8 °F 7.0 °F 77% 30.10 in 3.0 mi North 15.0 mph 24.2 mph 0.00 in Snow Light Snow
6:07 PM 14.0 °F -0.8 °F 8.6 °F 79% 30.06 in 4.0 mi North 13.8 mph 21.9 mph 0.00 in Snow Light Snow
6:19 PM 14.0 °F 1.2 °F 8.6 °F 79% 30.07 in 2.5 mi North 10.4 mph - 0.00 in Snow Light Snow
6:53 PM 14.0 °F -1.4 °F 8.1 °F 77% 30.14 in 2.0 mi NNW 15.0 mph 24.2 mph 0.00 in Snow Light Snow
6:55 PM 14.0 °F -2.0 °F 8.6 °F 79% 30.09 in 1.8 mi NNW 16.1 mph 24.2 mph 0.00 in Snow Light Snow
7:27 PM 12.2 °F -3.1 °F 6.8 °F 79% 30.11 in 2.5 mi NNW 13.8 mph 26.5 mph 0.00 in Snow Light Snow
7:39 PM 12.2 °F -4.3 °F 6.8 °F 79% 30.13 in 3.0 mi NNW 16.1 mph 25.3 mph 0.00 in Snow Light Snow
7:53 PM 10.9 °F -7.5 °F 5.0 °F 77% 30.19 in 4.0 mi NNW 19.6 mph 26.5 mph 0.00 in Snow Light Snow
8:53 PM 10.0 °F -8.1 °F 3.9 °F 76% 30.22 in 5.0 mi NNW 18.4 mph 25.3 mph 0.00 in Snow Light Snow
9:08 PM 10.4 °F -8.6 °F 3.2 °F 73% 30.17 in 5.0 mi NNW 20.7 mph 27.6 mph 0.00 in Snow Light Snow
9:53 PM 9.0 °F -9.0 °F 1.9 °F 73% 30.24 in 7.0 mi NNW 17.3 mph 24.2 mph 0.00 in Snow Light Snow
10:53 PM 9.0 °F -7.9 °F 1.0 °F 70% 30.26 in 10.0 mi NNW 15.0 mph 26.5 mph 0.00 in   Overcast
11:53 PM 7.0 °F -7.5 °F -0.9 °F 70% 30.28 in 10.0 mi NNW 10.4 mph - 0.00 in   Partly Cloudy